User: anonymous   Login
Location: Unspecified
(0.0000°N, 0.0000°E)
Time: 18:56:18
(UTC+00:00)
Language:

UWE-3 - Orbit

View from above orbital plane
View from above orbital plane
View from above satellite
View from above satellite

Ground track
Ground track

The orbit data is extracted from the following two-line orbital elements,

1 39446U 13066AG  17145.67094478 +.00000265 +00000-0 +42299-4 0  9998
2 39446 097.6298 183.4024 0070399 000.1557 359.9664 14.77969241187285
Epoch (UTC): 25 May 2017 16:06:09
Eccentricity: 0.0070399
inclination: 97.6298°
perigee height: 586 km
apogee height: 685 km
right ascension of ascending node: 183.4024°
argument of perigee: 0.1557°
revolutions per day: 14.77969241
mean anomaly at epoch: 359.9664°
orbit number at epoch: 18728

The dashed part of the orbit path shows where the satellite is in the earth's shadow,  

DLR